COSMOS 2559 (707K)

Last updated on Mon Sep 21 2026 00:03:22 GMT+0000 (Coordinated Universal Time)

1 54031U 22130A 26262.71933000 -.00000030 00000+0 00000+0 0 9994 2 54031 64.2103 311.2303 0013470 188.9341 171.1129 2.13101815 30707
UTC large
Height (km)
Speed (km/s)
/
Latitude / Longitude
Inclination (degrees)
Orbital Period (minutes)
Azimuth
Elevation
Range (km)
Doppler Factor

Next 0 passes for location: London (51.5072 / 0.1276)

No passes found over London.
COSMOS 2559 (707K)